Weather History for KSFM - February, 2013

Change the Weather History Date:

Saturday, February 9, 2013

  Actual Average (KPWM) Record (KPWM)
Temperature  
Mean Temperature 16 °F 24 °F  
Max Temperature 19 °F 33 °F 55 °F (1990)
Min Temperature 12 °F 15 °F -15 °F (1948)
Degree Days  
Heating Degree Days 50 41  
Month to date heating degree days 374  
Since 1 July heating degree days 4310  
Cooling Degree Days 0 0  
Month to date cooling degree days 0  
Year to date cooling degree days 0  
Moisture  
Dew Point 8 °F    
Average Humidity 71    
Maximum Humidity 93    
Minimum Humidity 49    
Precipitation  
Precipitation 0.00 in 0.10 in 1.90 in (1969)
Month to date precipitation 0.97  
Year to date precipitation 4.35  
Snow  
Snow 0.00 in 0.40 in 17.00 in (1969)
Month to date snowfall 4.1  
Since 1 July snowfall 38.4  
Snow Depth -    
Sea Level Pressure  
Sea Level Pressure 29.82 in    
Wind  
Wind Speed 26 mph (North)    
Max Wind Speed 36 mph    
Max Gust Speed 50 mph    
Visibility 3 miles    
Events      
T = Trace of Precipitation, MM = Missing Value Source: NWS Daily Summary

Daily Weather History Graph

Daily Weather History Graph

Search for Another Location

Airport or City:

Trip Planner

Search our weather history database for the weather conditions in past years. The results will help you decide how hot, cold, wet, or windy it might be!

Date:

Astronomy

Feb. 09, 2013 Rise Set
Actual Time 6:48 AM EST 5:05 PM EST
Civil Twilight 6:19 AM EST 5:35 PM EST
Nautical Twilight 5:45 AM EST 6:09 PM EST
Astronomical Twilight 5:12 AM EST 6:42 PM EST
Moon 5:58 AM EST (2/9) 4:45 PM EST (2/9)
Length of Visible Light 11h 16m
Length of Day
10h 16m
Waning Crescent, 0% of the Moon is Illuminated
Feb 9
Waning Crescent
Feb 10
New
Feb 17
First Quarter
Feb 25
Full
Mar 4
Last Quarter

Hourly Weather History & Observations

Time (EST) Temp. Windchill Dew Point Humidity Pressure Visibility Wind Dir Wind Speed Gust Speed Precip Events Conditions
12:15 AM 12.2 °F -9.9 °F 6.8 °F 79% 29.73 in 0.2 mi North 32.2 mph 41.4 mph N/A   Overcast
12:35 AM 12.2 °F -9.9 °F 10.4 °F 92% 29.71 in 0.5 mi North 32.2 mph 41.4 mph N/A   Overcast
12:55 AM 12.2 °F -7.9 °F 3.2 °F 67% 29.70 in 0.2 mi North 25.3 mph 36.8 mph N/A   Overcast
1:35 AM 12.2 °F -9.3 °F 10.4 °F 92% 29.67 in 0.2 mi North 29.9 mph 39.1 mph N/A   Overcast
1:55 AM 12.2 °F -10.2 °F 3.2 °F 67% 29.69 in 0.2 mi North 33.4 mph 41.4 mph N/A   Overcast
2:15 AM 12.2 °F -8.9 °F 8.6 °F 85% 29.69 in 0.2 mi North 28.8 mph 39.1 mph N/A   Overcast
2:35 AM 12.2 °F -7.9 °F 8.6 °F 85% 29.68 in 0.2 mi North 25.3 mph 36.8 mph N/A   Overcast
2:55 AM 12.2 °F -8.6 °F 8.6 °F 85% 29.66 in 0.2 mi North 27.6 mph 39.1 mph N/A   Overcast
3:15 AM 12.2 °F -9.9 °F 6.8 °F 79% 29.66 in 0.2 mi North 32.2 mph 44.9 mph N/A   Overcast
3:35 AM 12.2 °F -8.9 °F 6.8 °F 79% 29.65 in 0.2 mi North 28.8 mph 42.6 mph N/A   Overcast
3:55 AM 12.2 °F -9.6 °F 8.6 °F 85% 29.64 in 0.2 mi North 31.1 mph 41.4 mph N/A   Overcast
4:15 AM 12.2 °F -10.5 °F 10.4 °F 92% 29.63 in 0.2 mi North 34.5 mph 44.9 mph N/A   Overcast
4:35 AM 12.2 °F -9.3 °F 6.8 °F 79% 29.63 in 0.2 mi North 29.9 mph 47.2 mph N/A   Overcast
4:55 AM 12.2 °F -9.6 °F 10.4 °F 92% 29.62 in 0.5 mi North 31.1 mph 39.1 mph N/A   Overcast
5:15 AM 12.2 °F -10.8 °F 6.8 °F 79% 29.62 in 0.2 mi North 35.7 mph 44.9 mph N/A   Overcast
5:35 AM 12.2 °F -10.5 °F 8.6 °F 85% 29.62 in 0.2 mi North 34.5 mph 49.5 mph N/A   Overcast
5:55 AM 12.2 °F -9.9 °F 10.4 °F 92% 29.63 in 0.2 mi North 32.2 mph 43.7 mph N/A   Overcast
6:15 AM 12.2 °F -8.2 °F 10.4 °F 92% 29.64 in 0.2 mi North 26.5 mph 42.6 mph N/A   Overcast
6:35 AM 12.2 °F -8.9 °F 8.6 °F 85% 29.64 in 0.2 mi North 28.8 mph 43.7 mph N/A   Overcast
6:55 AM 14.0 °F -5.5 °F 10.4 °F 86% 29.65 in 0.2 mi North 25.3 mph 38.0 mph N/A   Overcast
7:15 AM 14.0 °F -6.2 °F 10.4 °F 86% 29.67 in 0.2 mi North 27.6 mph 36.8 mph N/A   Overcast
7:35 AM 14.0 °F -7.1 °F 6.8 °F 73% 29.66 in 0.2 mi North 31.1 mph 39.1 mph N/A   Overcast
7:55 AM 14.0 °F -5.8 °F 10.4 °F 86% 29.68 in 0.2 mi North 26.5 mph 38.0 mph N/A   Overcast
8:15 AM 15.8 °F -2.3 °F 8.6 °F 73% 29.68 in 0.2 mi NNW 23.0 mph 35.7 mph N/A   Overcast
8:35 AM 15.8 °F -1.9 °F 8.6 °F 73% 29.69 in 0.2 mi North 21.9 mph 29.9 mph N/A   Overcast
8:55 AM 15.8 °F -1.9 °F 12.2 °F 86% 29.70 in 0.2 mi North 21.9 mph 33.4 mph N/A   Overcast
9:15 AM 15.8 °F -2.7 °F 8.6 °F 73% 29.71 in 0.2 mi North 24.2 mph 39.1 mph N/A   Overcast
9:35 AM 15.8 °F -4.1 °F 10.4 °F 79% 29.72 in 0.2 mi North 28.8 mph 39.1 mph N/A   Overcast
9:55 AM 15.8 °F -1.9 °F 12.2 °F 86% 29.73 in 0.2 mi North 21.9 mph 34.5 mph N/A   Overcast
10:15 AM 17.6 °F 0.9 °F 8.6 °F 68% 29.74 in 0.2 mi North 20.7 mph 33.4 mph N/A   Overcast
10:35 AM 17.6 °F -1.0 °F 14.0 °F 86% 29.74 in 0.2 mi North 26.5 mph 39.1 mph N/A   Overcast
10:55 AM 17.6 °F 0.1 °F 8.6 °F 68% 29.75 in 0.2 mi North 23.0 mph 39.1 mph N/A   Overcast
11:15 AM 17.6 °F -0.3 °F 12.2 °F 79% 29.75 in 0.2 mi North 24.2 mph 38.0 mph N/A   Overcast
11:35 AM 17.6 °F 1.3 °F 15.8 °F 93% 29.76 in 0.2 mi North 19.6 mph 35.7 mph N/A   Overcast
11:55 AM 17.6 °F -0.3 °F 10.4 °F 73% 29.76 in 0.2 mi North 24.2 mph 36.8 mph N/A   Overcast
12:15 PM 17.6 °F -0.3 °F 14.0 °F 86% 29.76 in 0.2 mi North 24.2 mph 35.7 mph N/A   Overcast
12:35 PM 19.4 °F 3.2 °F 10.4 °F 68% 29.77 in 0.8 mi North 20.7 mph 28.8 mph N/A   Overcast
12:55 PM 19.4 °F 1.8 °F 8.6 °F 63% 29.78 in 0.8 mi North 25.3 mph 31.1 mph N/A   Overcast
1:15 PM 19.4 °F 4.1 °F 12.2 °F 74% 29.79 in 0.5 mi North 18.4 mph 41.4 mph N/A   Overcast
1:35 PM 19.4 °F 3.6 °F 8.6 °F 63% 29.81 in 1.2 mi NNW 19.6 mph 29.9 mph N/A   Overcast
1:55 PM 19.4 °F 4.5 °F 10.4 °F 68% 29.82 in 1.2 mi NNW 17.3 mph 29.9 mph N/A   Overcast
2:15 PM 19.4 °F 2.8 °F 10.4 °F 68% 29.83 in 1.2 mi NNW 21.9 mph 29.9 mph N/A   Overcast
2:35 PM 19.4 °F 3.2 °F 6.8 °F 58% 29.85 in 1.5 mi NNW 20.7 mph 32.2 mph N/A   Overcast
2:55 PM 19.4 °F 3.2 °F 8.6 °F 63% 29.87 in 1.5 mi North 20.7 mph 28.8 mph N/A   Overcast
3:15 PM 19.4 °F 3.2 °F 8.6 °F 63% 29.88 in 1.0 mi NNW 20.7 mph 28.8 mph N/A   Overcast
3:35 PM 19.4 °F 1.8 °F 5.0 °F 54% 29.90 in 1.2 mi NNW 25.3 mph 33.4 mph N/A   Scattered Clouds
3:55 PM 19.4 °F 5.0 °F 8.6 °F 63% 29.91 in 3.0 mi NNW 16.1 mph 27.6 mph N/A   Scattered Clouds
4:15 PM 19.4 °F 1.8 °F 6.8 °F 58% 29.92 in 1.2 mi NNW 25.3 mph 34.5 mph N/A   Mostly Cloudy
4:35 PM 19.4 °F 3.6 °F 3.2 °F 49% 29.94 in 2.0 mi NNW 19.6 mph 34.5 mph N/A   Mostly Cloudy
4:55 PM 19.4 °F 3.6 °F 6.8 °F 58% 29.95 in 2.5 mi NNW 19.6 mph 31.1 mph N/A   Partly Cloudy
5:15 PM 19.4 °F 3.6 °F 6.8 °F 58% 29.97 in 2.0 mi NNW 19.6 mph 31.1 mph N/A   Scattered Clouds
5:35 PM 19.4 °F 4.5 °F 6.8 °F 58% 29.98 in 2.0 mi NNW 17.3 mph 34.5 mph N/A   Mostly Cloudy
6:15 PM 19.4 °F 5.0 °F 5.0 °F 54% 30.00 in 9.0 mi NNW 16.1 mph 21.9 mph N/A   Scattered Clouds
6:35 PM 19.4 °F 5.0 °F 5.0 °F 54% 30.01 in 10.0 mi NNW 16.1 mph 24.2 mph N/A   Clear
6:55 PM 19.4 °F 4.5 °F 6.8 °F 58% 30.03 in 10.0 mi North 17.3 mph 21.9 mph N/A   Clear
7:35 PM 19.4 °F 7.9 °F 3.2 °F 49% 30.05 in 10.0 mi NNW 10.4 mph 19.6 mph N/A   Clear
7:55 PM 17.6 °F 5.0 °F 5.0 °F 58% 30.05 in 10.0 mi NNW 11.5 mph 20.7 mph N/A   Clear
8:35 PM 17.6 °F 5.0 °F 3.2 °F 53% 30.06 in 10.0 mi NW 11.5 mph 21.9 mph N/A   Partly Cloudy
8:55 PM 17.6 °F 5.7 °F 3.2 °F 53% 30.07 in 10.0 mi NNW 10.4 mph - N/A   Partly Cloudy
9:15 PM 17.6 °F 5.0 °F 1.4 °F 49% 30.08 in 9.0 mi NNW 11.5 mph 17.3 mph N/A   Clear
9:35 PM 17.6 °F 8.2 °F 3.2 °F 53% 30.09 in 10.0 mi NW 6.9 mph - N/A   Clear
9:55 PM 15.8 °F 3.4 °F 3.2 °F 58% 30.09 in 10.0 mi WNW 10.4 mph - N/A   Clear
10:15 PM 15.8 °F 6.1 °F 1.4 °F 53% 30.10 in 10.0 mi NW 6.9 mph - N/A   Clear
10:35 PM 15.8 °F 3.4 °F 3.2 °F 58% 30.10 in 10.0 mi NW 10.4 mph 16.1 mph N/A   Clear
10:55 PM 15.8 °F 4.2 °F 1.4 °F 53% 30.10 in 10.0 mi NNW 9.2 mph - N/A   Clear
11:15 PM 15.8 °F 2.7 °F 3.2 °F 58% 30.10 in 10.0 mi NW 11.5 mph 17.3 mph N/A   Clear
11:35 PM 15.8 °F 2.7 °F 1.4 °F 53% 30.11 in 10.0 mi NW 11.5 mph 16.1 mph N/A   Clear
11:55 PM 15.8 °F 1.4 °F -0.4 °F 49% 30.12 in 10.0 mi NW 13.8 mph 17.3 mph N/A   Clear